TimeCST,TemperatureF,Dew PointF,Humidity,Sea Level PressureIn,VisibilityMPH,Wind Direction,Wind SpeedMPH,Gust SpeedMPH,PrecipitationIn,Events,Conditions,WindDirDegrees,DateUTC
12:53 AM,33.1,28.0,82,30.48,10.0,NNW,6.9,-,N/A,,Clear,340,2013-12-24 06:53:00
1:53 AM,32.0,28.0,85,30.49,10.0,NNW,8.1,-,N/A,,Clear,340,2013-12-24 07:53:00
2:53 AM,30.9,28.0,89,30.48,10.0,NNW,4.6,-,N/A,,Clear,340,2013-12-24 08:53:00
3:53 AM,30.9,27.0,85,30.51,10.0,NW,5.8,-,N/A,,Clear,320,2013-12-24 09:53:00
4:53 AM,30.9,27.0,85,30.49,10.0,NNW,6.9,-,N/A,,Clear,340,2013-12-24 10:53:00
5:53 AM,30.0,26.1,85,30.51,10.0,Calm,Calm,-,N/A,,Clear,0,2013-12-24 11:53:00
6:53 AM,28.9,26.1,89,30.53,10.0,NNW,3.5,-,N/A,,Clear,330,2013-12-24 12:53:00
7:53 AM,30.9,27.0,85,30.54,10.0,North,6.9,-,N/A,,Clear,350,2013-12-24 13:53:00
8:53 AM,35.1,27.0,72,30.55,10.0,NNE,9.2,-,N/A,,Clear,30,2013-12-24 14:53:00
9:53 AM,39.0,26.1,60,30.55,10.0,NE,8.1,-,N/A,,Clear,40,2013-12-24 15:53:00
10:53 AM,44.1,26.1,49,30.53,10.0,NNE,8.1,-,N/A,,Clear,30,2013-12-24 16:53:00
11:53 AM,46.9,27.0,46,30.51,10.0,NE,8.1,-,N/A,,Clear,50,2013-12-24 17:53:00
12:53 PM,48.9,26.1,41,30.48,10.0,North,10.4,-,N/A,,Clear,350,2013-12-24 18:53:00
1:53 PM,50.0,26.1,39,30.44,10.0,North,8.1,-,N/A,,Clear,360,2013-12-24 19:53:00
2:53 PM,50.0,25.0,38,30.43,10.0,NNE,11.5,-,N/A,,Clear,20,2013-12-24 20:53:00
3:53 PM,48.9,24.1,38,30.43,10.0,NNE,9.2,-,N/A,,Clear,30,2013-12-24 21:53:00
4:53 PM,46.0,23.0,40,30.42,10.0,NNE,5.8,-,N/A,,Clear,20,2013-12-24 22:53:00
5:53 PM,39.0,28.9,67,30.43,10.0,Calm,Calm,-,N/A,,Clear,0,2013-12-24 23:53:00
6:53 PM,36.0,28.0,73,30.44,10.0,Calm,Calm,-,N/A,,Clear,0,2013-12-25 00:53:00
7:53 PM,34.0,28.0,79,30.44,10.0,Calm,Calm,-,N/A,,Clear,0,2013-12-25 01:53:00
8:53 PM,30.9,27.0,85,30.44,10.0,Calm,Calm,-,N/A,,Clear,0,2013-12-25 02:53:00
9:53 PM,30.0,27.0,88,30.45,10.0,Calm,Calm,-,N/A,,Clear,0,2013-12-25 03:53:00
10:53 PM,28.9,26.1,89,30.45,10.0,Calm,Calm,-,N/A,,Clear,0,2013-12-25 04:53:00
11:53 PM,27.0,25.0,92,30.43,10.0,Calm,Calm,-,N/A,,Clear,0,2013-12-25 05:53:00